Location: Mascot Post Office (historical)
(40.2645°N, 99.5462°W)
Time: 02:44:29
(UTC+00:00)

Cosmos 1408 - Pass Details

Date: 14 July 2020
Orbit: 471 x 493 km, 82.6° (Epoch: 14 August)

Event Time Altitude Azimuth Distance (km) Brightness Sun altitude
Exits shadow 03:30:37 19° 99° (E) 1,192 4.1 -13.5°
Maximum altitude 03:31:05 19° 89° (E) 1,175 4.1 -13.5°
Drops below altitude 10° 03:33:41 10° 42° (NE) 1,640 5.3 -13.9°
Sets 03:36:11 0° 24° (NNE) 2,524 6.5 -14.2°
